• în Republica Moldova
  • Lista ţărilor
  • Pe 7 zile
  • Temperatura apei
  • Hartă satelitară
  • Meteo pe hartă
  • Widget-uri
  • user-avatar
    Intrare

    Meteo pe oră la Ganja

    Astăzi, 26 Martie, Duminică

    Timp Temperatura Precipitaţii Vânt Presiune Umiditate
    00:00 +6°C° 0 mm 1 m/s 724 mmHg 83%
    01:00 +6°C° 0 mm 1 m/s 724 mmHg 84%
    02:00 +5°C° 0 mm 1 m/s 724 mmHg 86%
    03:00 +5°C° 0 mm 1 m/s 724 mmHg 87%
    04:00 +5°C° 0 mm 1 m/s 724 mmHg 85%
    05:00 +5°C° 0 mm 1 m/s 725 mmHg 83%
    06:00 +5°C° 0 mm 1 m/s 725 mmHg 81%
    07:00 +7°C° 0 mm 1 m/s 725 mmHg 72%
    08:00 +9°C° 0 mm 1 m/s 724 mmHg 63%
    09:00 +12°C° 0 mm 1 m/s 724 mmHg 53%
    10:00 +13°C° 0 mm 1 m/s 724 mmHg 51%
    11:00 +14°C° 0 mm 1 m/s 723 mmHg 48%
    12:00 +15°C° 0 mm 1 m/s 723 mmHg 46%
    13:00 +16°C° 0 mm 2 m/s 723 mmHg 45%
    14:00 +16°C° 0 mm 2 m/s 723 mmHg 44%
    15:00 +17°C° 0 mm 2 m/s 722 mmHg 43%
    16:00 +15°C° 0 mm 2 m/s 723 mmHg 48%
    17:00 +14°C° 0 mm 2 m/s 723 mmHg 53%
    18:00 +12°C° 0 mm 1 m/s 723 mmHg 57%
    19:00 +10°C° 0 mm 2 m/s 723 mmHg 58%
    20:00 +9°C° 0 mm 2 m/s 724 mmHg 58%
    21:00 +8°C° 0 mm 2 m/s 724 mmHg 58%
    22:00 +8°C° 0 mm 2 m/s 724 mmHg 58%
    23:00 +8°C° 0 mm 2 m/s 725 mmHg 58%

    Mâine, 27 Martie, Luni

    Timp Temperatura Precipitaţii Vânt Presiune Umiditate
    00:00 +8°C° 0 mm 3 m/s 725 mmHg 58%
    01:00 +8°C° 0 mm 3 m/s 724 mmHg 58%
    02:00 +8°C° 0 mm 3 m/s 724 mmHg 59%
    03:00 +7°C° 0 mm 3 m/s 724 mmHg 59%
    04:00 +7°C° 0 mm 3 m/s 724 mmHg 60%
    05:00 +7°C° 0 mm 3 m/s 724 mmHg 60%
    06:00 +7°C° 0 mm 3 m/s 724 mmHg 60%
    07:00 +10°C° 0 mm 3 m/s 724 mmHg 55%
    08:00 +12°C° 0 mm 3 m/s 723 mmHg 49%
    09:00 +14°C° 0 mm 3 m/s 723 mmHg 43%
    10:00 +17°C° 0 mm 3 m/s 722 mmHg 40%
    11:00 +18°C° 0 mm 4 m/s 722 mmHg 38%
    12:00 +19°C° 0 mm 4 m/s 721 mmHg 35%
    13:00 +19°C° 0 mm 4 m/s 721 mmHg 35%
    14:00 +20°C° 0 mm 4 m/s 721 mmHg 35%
    15:00 +20°C° 0 mm 4 m/s 720 mmHg 35%
    16:00 +18°C° 0 mm 3 m/s 720 mmHg 40%
    17:00 +16°C° 0 mm 3 m/s 720 mmHg 45%
    18:00 +14°C° 0 mm 2 m/s 720 mmHg 51%
    19:00 +14°C° 0 mm 2 m/s 721 mmHg 52%
    20:00 +13°C° 0 mm 2 m/s 721 mmHg 53%
    21:00 +11°C° 0 mm 3 m/s 721 mmHg 54%
    22:00 +11°C° 0 mm 3 m/s 721 mmHg 56%
    23:00 +10°C° 0 mm 3 m/s 721 mmHg 58%

    Poimâine, 28 Martie, Marţi

    Timp Temperatura Precipitaţii Vânt Presiune Umiditate
    00:00 +10°C° 0 mm 3 m/s 721 mmHg 61%
    01:00 +9°C° 0 mm 3 m/s 721 mmHg 64%
    02:00 +8°C° 0 mm 4 m/s 721 mmHg 67%
    03:00 +8°C° 0 mm 4 m/s 721 mmHg 69%
    04:00 +7°C° 0 mm 4 m/s 722 mmHg 73%
    05:00 +7°C° 0 mm 4 m/s 723 mmHg 76%
    06:00 +6°C° 0 mm 4 m/s 723 mmHg 79%
    07:00 +7°C° 0,1 mm 4 m/s 724 mmHg 73%
    08:00 +8°C° 0,1 mm 5 m/s 724 mmHg 67%
    09:00 +9°C° 0,1 mm 5 m/s 725 mmHg 61%
    10:00 +10°C° 0,1 mm 5 m/s 725 mmHg 57%
    11:00 +12°C° 0,1 mm 5 m/s 725 mmHg 54%
    12:00 +12°C° 0,1 mm 4 m/s 725 mmHg 51%
    13:00 +13°C° 0,1 mm 4 m/s 724 mmHg 49%
    14:00 +13°C° 0,1 mm 3 m/s 724 mmHg 48%
    15:00 +13°C° 0,1 mm 3 m/s 724 mmHg 47%
    16:00 +13°C° 0,1 mm 2 m/s 724 mmHg 50%
    17:00 +12°C° 0,1 mm 1 m/s 724 mmHg 54%
    18:00 +11°C° 0,1 mm 1 m/s 725 mmHg 58%
    19:00 +10°C° 0 mm 1 m/s 725 mmHg 58%
    20:00 +9°C° 0 mm 1 m/s 726 mmHg 59%
    21:00 +8°C° 0 mm 1 m/s 726 mmHg 60%
    22:00 +7°C° 0 mm 2 m/s 726 mmHg 61%
    23:00 +7°C° 0 mm 2 m/s 726 mmHg 62%

    29 Martie, Miercuri

    Timp Temperatura Precipitaţii Vânt Presiune Umiditate
    00:00 +5°C° 0 mm 3 m/s 726 mmHg 64%
    01:00 +5°C° 0 mm 3 m/s 726 mmHg 64%
    02:00 +5°C° 0 mm 3 m/s 726 mmHg 64%
    03:00 +5°C° 0 mm 4 m/s 725 mmHg 64%
    04:00 +5°C° 0 mm 4 m/s 725 mmHg 64%
    05:00 +5°C° 0 mm 4 m/s 725 mmHg 64%
    06:00 +5°C° 0 mm 4 m/s 725 mmHg 64%
    07:00 +7°C° 0 mm 4 m/s 726 mmHg 58%
    08:00 +10°C° 0 mm 4 m/s 726 mmHg 52%
    09:00 +12°C° 0 mm 4 m/s 726 mmHg 46%
    10:00 +13°C° 0 mm 4 m/s 725 mmHg 43%
    11:00 +14°C° 0 mm 5 m/s 725 mmHg 40%
    12:00 +16°C° 0 mm 5 m/s 725 mmHg 37%
    13:00 +16°C° 0 mm 5 m/s 725 mmHg 36%
    14:00 +17°C° 0 mm 5 m/s 725 mmHg 36%
    15:00 +17°C° 0 mm 5 m/s 724 mmHg 35%
    16:00 +15°C° 0 mm 4 m/s 725 mmHg 39%
    17:00 +14°C° 0 mm 3 m/s 725 mmHg 44%
    18:00 +13°C° 0 mm 2 m/s 726 mmHg 48%
    19:00 +12°C° 0 mm 2 m/s 727 mmHg 51%
    20:00 +10°C° 0 mm 2 m/s 728 mmHg 54%
    21:00 +9°C° 0 mm 1 m/s 729 mmHg 57%
    22:00 +8°C° 0 mm 2 m/s 729 mmHg 62%
    23:00 +7°C° 0 mm 2 m/s 729 mmHg 67%

    30 Martie, Joi

    Timp Temperatura Precipitaţii Vânt Presiune Umiditate
    00:00 +7°C° 0 mm 3 m/s 730 mmHg 72%
    01:00 +6°C° 0 mm 2 m/s 730 mmHg 76%
    02:00 +6°C° 0 mm 2 m/s 730 mmHg 80%
    03:00 +5°C° 0 mm 2 m/s 730 mmHg 84%
    04:00 +5°C° 0 mm 2 m/s 731 mmHg 85%
    05:00 +5°C° 0 mm 2 m/s 731 mmHg 86%
    06:00 +5°C° 0 mm 2 m/s 731 mmHg 88%
    07:00 +6°C° 0 mm 2 m/s 731 mmHg 82%
    08:00 +8°C° 0 mm 3 m/s 731 mmHg 77%
    09:00 +9°C° 0 mm 3 m/s 731 mmHg 72%
    10:00 +10°C° 0 mm 3 m/s 730 mmHg 70%
    11:00 +10°C° 0 mm 3 m/s 730 mmHg 67%
    12:00 +11°C° 0 mm 3 m/s 729 mmHg 65%
    13:00 +13°C° 0 mm 2 m/s 729 mmHg 63%
    14:00 +13°C° 0 mm 2 m/s 728 mmHg 62%
    15:00 +13°C° 0 mm 2 m/s 727 mmHg 60%
    16:00 +12°C° 0 mm 1 m/s 727 mmHg 66%
    17:00 +11°C° 0 mm 1 m/s 727 mmHg 72%
    18:00 +10°C° 0 mm 1 m/s 727 mmHg 78%
    19:00 +9°C° 0 mm 1 m/s 727 mmHg 81%
    20:00 +8°C° 0 mm 1 m/s 727 mmHg 84%
    21:00 +7°C° 0 mm 1 m/s 727 mmHg 87%
    22:00 +7°C° 0 mm 1 m/s 727 mmHg 88%
    23:00 +7°C° 0 mm 1 m/s 726 mmHg 89%

    31 Martie, Vineri

    Timp Temperatura Precipitaţii Vânt Presiune Umiditate
    00:00 +7°C° 0 mm 1 m/s 726 mmHg 90%
    01:00 +7°C° 0 mm 1 m/s 725 mmHg 87%
    02:00 +6°C° 0 mm 2 m/s 725 mmHg 85%
    03:00 +6°C° 0 mm 2 m/s 725 mmHg 83%
    04:00 +7°C° 0 mm 2 m/s 724 mmHg 79%
    05:00 +7°C° 0 mm 2 m/s 724 mmHg 75%
    06:00 +8°C° 0 mm 2 m/s 724 mmHg 72%
    07:00 +10°C° 0 mm 3 m/s 724 mmHg 64%
    08:00 +12°C° 0 mm 3 m/s 724 mmHg 56%
    09:00 +14°C° 0 mm 3 m/s 724 mmHg 48%
    10:00 +16°C° 0 mm 3 m/s 724 mmHg 46%
    11:00 +18°C° 0 mm 3 m/s 723 mmHg 43%
    12:00 +19°C° 0 mm 3 m/s 723 mmHg 40%
    13:00 +19°C° 0 mm 3 m/s 723 mmHg 40%
    14:00 +19°C° 0 mm 3 m/s 723 mmHg 40%
    15:00 +20°C° 0 mm 2 m/s 722 mmHg 40%
    16:00 +18°C° 0 mm 2 m/s 723 mmHg 47%
    17:00 +16°C° 0 mm 1 m/s 723 mmHg 53%
    18:00 +15°C° 0 mm 1 m/s 723 mmHg 59%
    19:00 +14°C° 0,1 mm 1 m/s 724 mmHg 60%
    20:00 +14°C° 0,1 mm 2 m/s 724 mmHg 61%
    21:00 +13°C° 0,1 mm 2 m/s 725 mmHg 62%
    22:00 +12°C° 0,3 mm 3 m/s 725 mmHg 66%
    23:00 +11°C° 0,3 mm 3 m/s 725 mmHg 70%
    Arată mai mult